Location: Mat�lon
(46.2791°N, 7.1028°E)
Time: 06:34:04
(UTC+00:00)

Cosmos 2082 Rocket - Pass Details

Date: 18 September 2020
Orbit: 834 x 853 km, 71.0° (Epoch: 23 October)

Event Time Altitude Azimuth Distance (km) Brightness Sun altitude
Rises 20:39:42 0° 338° (NNW) 3,392 6.2 -30.0°
Reaches altitude 10° 20:42:20 10° 346° (NNW) 2,455 5.2 -30.3°
Enters shadow 20:46:13 33° 24° (NNE) 1,380 3.4 -30.8°
